This is the latest recevied weather packets stored in our database for station/object KH6DH-13. If no packets are shown the sender has not sent any weather packets the latest 10 day(s).
| Time | Temp. | Humidity | Pressure | Rain* | Wind** | Luminosity | Snow |
|---|---|---|---|---|---|---|---|
| 1777692573 | 27.78° C | - | - | 0.51 mm | 0.89 m/s, 75° | - | - |
| 1777691972 | 26.11° C | - | - | 0.51 mm | 2.68 m/s, 53° | - | - |
| 1777691371 | 25° C | - | - | 0.51 mm | 1.34 m/s, 38° | - | - |
| 1777690770 | 24.44° C | - | - | 0.51 mm | 1.79 m/s, 45° | - | - |
| 1777690169 | 24.44° C | - | - | 0.51 mm | 1.34 m/s, 305° | - | - |
| 1777689568 | 25° C | - | - | 0.51 mm | 1.34 m/s, 30° | - | - |
| 1777688967 | 25° C | - | - | 0.76 mm | 1.34 m/s, 121° | - | - |
| 1777688366 | 25° C | - | - | 0.76 mm | 2.24 m/s, 316° | - | - |
| 1777687765 | 26.11° C | - | - | 0.76 mm | 2.24 m/s, 34° | - | - |
| 1777687164 | 26.11° C | - | - | 0.76 mm | 1.79 m/s, 347° | - | - |
| 1777686563 | 26.11° C | - | - | 0.76 mm | 1.79 m/s, 79° | - | - |
| 1777685962 | 25.56° C | - | - | 0.76 mm | 2.24 m/s, 343° | - | - |
| 1777685361 | 25° C | - | - | 0.25 mm | 1.79 m/s, 72° | - | - |
| 1777684760 | 26.11° C | - | - | 0.25 mm | 2.24 m/s, 90° | - | - |
| 1777684159 | 25.56° C | - | - | 0.25 mm | 1.79 m/s, 59° | - | - |
| 1777683558 | 25.56° C | - | - | 0.25 mm | 2.68 m/s, 90° | - | - |
| 1777682957 | 25.56° C | - | - | 0.25 mm | 1.34 m/s, 359° | - | - |
| 1777682356 | 26.67° C | - | - | 0.25 mm | 2.68 m/s, 120° | - | - |
| 1777681755 | 27.22° C | - | - | 0 mm | 2.68 m/s, 132° | - | - |
| 1777681154 | 26.67° C | - | - | 0 mm | 0.45 m/s, 23° | - | - |
| 1777680553 | 26.67° C | - | - | 0 mm | 2.24 m/s, 359° | - | - |
| 1777679953 | 26.67° C | - | - | 0 mm | 2.24 m/s, 160° | - | - |
| 1777679351 | 26.67° C | - | - | 0 mm | 0.45 m/s, 145° | - | - |
| 1777678750 | 27.78° C | - | - | 0 mm | 2.68 m/s, 104° | - | - |
| 1777678149 | 27.78° C | - | - | 0 mm | 2.68 m/s, 53° | - | - |
* Rain latest hour (hover to see other rain measurements)
** Current wind speed in m/s (hover to see current wind gust speed)